GFSNW_prec_precacc12_174.txt.gz
Total_Precipitation_Accumulation
0.00 0.00 0.00 0.00 0.00 0.04 0.17 0.39 0.37 0.07 0.29 0.27 0.13 0.14 0.06 0.01 0.00 0.00 0.00 0.01 0.01 0.01 0.01 0.02 0.04 0.06 0.05 0.04 0.02 0.00 0.00 0.03 0.01 0.00 0.00 0.00 0.00 0.00 0.00 0.00 0.00 0.00 0.01 0.00
0.00 0.00 0.00 0.00 0.01 0.05 0.20 0.41 0.27 0.18 0.35 0.31 0.14 0.03 0.02 0.02 0.00 0.00 0.01 0.01 0.01 0.00 0.02 0.07 0.04 0.04 0.01 0.06 0.15 0.11 0.04 0.17 0.15 0.05 0.01 0.00 0.00 0.00 0.00 0.00 0.01 0.04 0.01 0.00
0.00 0.01 0.01 0.00 0.02 0.08 0.29 0.28 0.26 0.21 0.42 0.39 0.21 0.14 0.07 0.04 0.01 0.02 0.03 0.05 0.05 0.06 0.04 0.05 0.04 0.02 0.01 0.01 0.11 0.08 0.09 0.21 0.18 0.10 0.01 0.01 0.06 0.05 0.01 0.02 0.08 0.03 0.00 0.00
0.01 0.02 0.03 0.02 0.03 0.12 0.29 0.53 0.32 0.09 0.18 0.24 0.18 0.11 0.12 0.08 0.05 0.01 0.05 0.12 0.09 0.10 0.18 0.09 0.07 0.07 0.08 0.05 0.04 0.06 0.12 0.26 0.06 0.03 0.00 0.00 0.02 0.03 0.02 0.02 0.03 0.01 0.01 0.00
0.03 0.05 0.05 0.09 0.09 0.22 0.42 0.42 0.33 0.22 0.06 0.01 0.12 0.21 0.22 0.10 0.03 0.02 0.04 0.11 0.05 0.08 0.15 0.17 0.20 0.25 0.29 0.24 0.18 0.19 0.26 0.38 0.18 0.17 0.02 0.00 0.02 0.02 0.00 0.00 0.00 0.01 0.01 0.00
0.02 0.08 0.15 0.12 0.19 0.38 0.55 0.42 0.27 0.28 0.20 0.06 0.07 0.09 0.10 0.10 0.09 0.08 0.02 0.07 0.13 0.14 0.07 0.10 0.11 0.17 0.22 0.24 0.19 0.23 0.29 0.27 0.30 0.24 0.01 0.07 0.25 0.05 0.00 0.00 0.00 0.00 0.01 0.00
0.01 0.04 0.11 0.20 0.19 0.39 0.43 0.32 0.27 0.37 0.31 0.14 0.06 0.01 0.01 0.01 0.03 0.07 0.06 0.10 0.14 0.10 0.06 0.11 0.09 0.15 0.21 0.28 0.28 0.26 0.28 0.16 0.33 0.29 0.12 0.42 0.11 0.00 0.00 0.00 0.00 0.00 0.00 0.00
0.04 0.05 0.08 0.14 0.24 0.31 0.39 0.27 0.46 0.50 0.28 0.11 0.06 0.04 0.04 0.04 0.03 0.04 0.03 0.03 0.04 0.12 0.20 0.30 0.21 0.09 0.12 0.11 0.15 0.21 0.29 0.31 0.37 0.34 0.24 0.10 0.01 0.00 0.00 0.00 0.00 0.00 0.00 0.00
0.08 0.08 0.10 0.10 0.10 0.24 0.41 0.30 0.28 0.53 0.63 0.30 0.11 0.07 0.06 0.08 0.10 0.08 0.03 0.01 0.05 0.14 0.24 0.25 0.16 0.05 0.05 0.03 0.04 0.05 0.11 0.14 0.25 0.26 0.20 0.10 0.00 0.00 0.00 0.00 0.01 0.00 0.00 0.00
0.05 0.06 0.10 0.13 0.12 0.14 0.24 0.28 0.25 0.38 0.39 0.16 0.20 0.23 0.18 0.13 0.11 0.10 0.07 0.05 0.10 0.18 0.32 0.33 0.17 0.06 0.02 0.02 0.03 0.05 0.14 0.38 0.45 0.21 0.13 0.03 0.00 0.00 0.00 0.00 0.01 0.00 0.00 0.00
0.05 0.04 0.06 0.11 0.16 0.17 0.19 0.17 0.22 0.33 0.31 0.09 0.08 0.11 0.15 0.20 0.32 0.27 0.19 0.25 0.22 0.26 0.26 0.24 0.16 0.11 0.03 0.03 0.00 0.03 0.07 0.10 0.13 0.23 0.26 0.09 0.00 0.00 0.00 0.00 0.00 0.00 0.00 0.00
0.05 0.03 0.05 0.05 0.12 0.13 0.16 0.19 0.17 0.27 0.42 0.16 0.08 0.06 0.02 0.03 0.10 0.30 0.34 0.41 0.30 0.31 0.29 0.19 0.18 0.19 0.15 0.07 0.06 0.02 0.05 0.06 0.04 0.04 0.04 0.00 0.00 0.00 0.00 0.00 0.00 0.00 0.00 0.00
0.08 0.04 0.03 0.03 0.06 0.11 0.09 0.10 0.27 0.38 0.39 0.13 0.03 0.01 0.00 0.00 0.01 0.10 0.29 0.25 0.27 0.36 0.32 0.23 0.18 0.14 0.06 0.13 0.13 0.07 0.05 0.02 0.09 0.10 0.02 0.00 0.01 0.01 0.05 0.07 0.02 0.00 0.00 0.00
0.07 0.04 0.01 0.01 0.04 0.10 0.08 0.09 0.18 0.32 0.37 0.14 0.01 0.00 0.00 0.00 0.00 0.00 0.01 0.05 0.13 0.21 0.27 0.37 0.21 0.13 0.07 0.06 0.05 0.08 0.10 0.11 0.11 0.11 0.06 0.05 0.04 0.01 0.02 0.03 0.02 0.01 0.00 0.00
0.04 0.03 0.01 0.00 0.03 0.13 0.12 0.12 0.11 0.12 0.27 0.27 0.08 0.01 0.00 0.00 0.00 0.00 0.00 0.01 0.05 0.30 0.28 0.17 0.12 0.06 0.06 0.03 0.03 0.03 0.02 0.10 0.14 0.14 0.10 0.07 0.03 0.03 0.02 0.02 0.01 0.01 0.00 0.00
0.03 0.02 0.04 0.02 0.02 0.09 0.20 0.13 0.07 0.08 0.16 0.17 0.04 0.00 0.00 0.00 0.00 0.00 0.01 0.03 0.14 0.37 0.34 0.17 0.04 0.01 0.08 0.08 0.03 0.00 0.00 0.00 0.02 0.05 0.03 0.03 0.02 0.04 0.04 0.07 0.09 0.07 0.02 0.00
0.02 0.02 0.07 0.07 0.09 0.06 0.16 0.16 0.18 0.13 0.20 0.41 0.15 0.04 0.01 0.01 0.04 0.04 0.05 0.12 0.22 0.34 0.41 0.26 0.06 0.03 0.07 0.06 0.01 0.00 0.00 0.00 0.02 0.04 0.06 0.06 0.03 0.02 0.01 0.03 0.04 0.07 0.06 0.01
0.01 0.02 0.09 0.15 0.16 0.12 0.05 0.07 0.19 0.34 0.26 0.31 0.28 0.11 0.10 0.05 0.10 0.19 0.20 0.27 0.33 0.36 0.31 0.22 0.13 0.11 0.12 0.06 0.00 0.00 0.00 0.00 0.00 0.01 0.01 0.02 0.02 0.02 0.03 0.01 0.01 0.01 0.00 0.00
0.02 0.06 0.21 0.24 0.20 0.11 0.04 0.04 0.15 0.18 0.23 0.35 0.12 0.09 0.27 0.33 0.32 0.32 0.31 0.30 0.34 0.24 0.17 0.09 0.14 0.21 0.16 0.01 0.00 0.00 0.00 0.00 0.00 0.00 0.00 0.01 0.01 0.02 0.02 0.01 0.01 0.00 0.00 0.00
0.16 0.43 0.51 0.24 0.05 0.04 0.07 0.24 0.58 0.33 0.16 0.11 0.11 0.14 0.31 0.46 0.35 0.31 0.24 0.18 0.20 0.21 0.07 0.05 0.15 0.06 0.01 0.00 0.00 0.00 0.00 0.00 0.00 0.00 0.00 0.01 0.01 0.01 0.00 0.00 0.00 0.00 0.00 0.00
0.37 0.41 0.20 0.19 0.08 0.16 0.20 0.31 0.43 0.34 0.22 0.04 0.01 0.10 0.21 0.31 0.29 0.21 0.16 0.20 0.16 0.18 0.09 0.13 0.11 0.02 0.00 0.00 0.00 0.00 0.00 0.00 0.00 0.00 0.00 0.00 0.00 0.00 0.00 0.00 0.00 0.00 0.00 0.00
0.07 0.13 0.19 0.18 0.14 0.19 0.22 0.10 0.15 0.19 0.12 0.08 0.04 0.11 0.19 0.15 0.17 0.21 0.14 0.14 0.11 0.10 0.08 0.16 0.05 0.00 0.00 0.00 0.00 0.00 0.00 0.00 0.00 0.00 0.00 0.00 0.00 0.00 0.00 0.00 0.00 0.00 0.00 0.00
0.09 0.25 0.35 0.12 0.07 0.13 0.12 0.09 0.04 0.07 0.09 0.10 0.12 0.22 0.18 0.13 0.15 0.22 0.16 0.13 0.08 0.01 0.03 0.04 0.01 0.00 0.00 0.00 0.00 0.00 0.00 0.00 0.00 0.00 0.00 0.00 0.00 0.00 0.00 0.00 0.00 0.00 0.00 0.00
0.19 0.18 0.19 0.07 0.04 0.01 0.02 0.04 0.08 0.11 0.10 0.08 0.18 0.31 0.16 0.12 0.12 0.09 0.06 0.04 0.01 0.00 0.01 0.01 0.00 0.00 0.00 0.01 0.01 0.00 0.00 0.00 0.00 0.00 0.00 0.00 0.00 0.00 0.00 0.00 0.00 0.00 0.00 0.00
0.17 0.11 0.09 0.02 0.02 0.02 0.05 0.03 0.01 0.00 0.00 0.03 0.16 0.19 0.10 0.13 0.10 0.03 0.03 0.01 0.01 0.01 0.03 0.04 0.00 0.00 0.00 0.01 0.00 0.00 0.00 0.00 0.00 0.00 0.00 0.00 0.00 0.00 0.00 0.00 0.00 0.00 0.00 0.00
0.12 0.04 0.01 0.01 0.01 0.01 0.01 0.01 0.00 0.00 0.01 0.03 0.09 0.15 0.06 0.07 0.05 0.03 0.01 0.00 0.01 0.01 0.00 0.00 0.00 0.00 0.00 0.01 0.00 0.00 0.00 0.00 0.00 0.00 0.00 0.00 0.00 0.00 0.00 0.00 0.00 0.00 0.00 0.00
0.02 0.02 0.01 0.01 0.01 0.01 0.01 0.01 0.01 0.00 0.02 0.04 0.06 0.04 0.04 0.04 0.01 0.01 0.00 0.01 0.01 0.00 0.00 0.00 0.00 0.00 0.00 0.00 0.00 0.00 0.00 0.00 0.00 0.00 0.00 0.00 0.00 0.00 0.00 0.00 0.00 0.00 0.00 0.00

GFSNW_prec_precacc12_180.txt.gz
Total_Precipitation_Accumulation
0.01 0.00 0.00 0.01 0.01 0.01 0.03 0.16 0.07 0.05 0.29 0.24 0.09 0.04 0.00 0.00 0.00 0.00 0.00 0.01 0.01 0.00 0.01 0.02 0.04 0.06 0.06 0.05 0.05 0.03 0.04 0.13 0.06 0.00 0.00 0.00 0.00 0.00 0.00 0.01 0.02 0.00 0.00 0.00
0.02 0.01 0.00 0.00 0.00 0.01 0.11 0.13 0.03 0.07 0.32 0.31 0.15 0.02 0.00 0.00 0.00 0.00 0.00 0.01 0.00 0.00 0.00 0.03 0.03 0.04 0.01 0.07 0.20 0.23 0.19 0.50 0.38 0.07 0.01 0.00 0.01 0.04 0.04 0.02 0.03 0.04 0.05 0.02
0.01 0.00 0.00 0.00 0.00 0.00 0.10 0.10 0.03 0.03 0.16 0.17 0.19 0.16 0.08 0.01 0.00 0.00 0.01 0.02 0.02 0.03 0.02 0.02 0.02 0.01 0.00 0.01 0.13 0.14 0.25 0.44 0.35 0.26 0.07 0.04 0.15 0.13 0.09 0.16 0.18 0.06 0.00 0.00
0.01 0.01 0.01 0.01 0.01 0.04 0.09 0.07 0.02 0.02 0.04 0.01 0.05 0.09 0.11 0.07 0.04 0.01 0.02 0.06 0.06 0.05 0.08 0.03 0.03 0.01 0.03 0.03 0.07 0.15 0.20 0.32 0.08 0.05 0.01 0.03 0.10 0.14 0.11 0.19 0.19 0.20 0.05 0.00
0.02 0.02 0.02 0.02 0.02 0.09 0.12 0.04 0.01 0.02 0.01 0.00 0.06 0.13 0.14 0.08 0.03 0.01 0.02 0.06 0.04 0.07 0.15 0.09 0.06 0.07 0.07 0.07 0.10 0.24 0.32 0.42 0.21 0.19 0.01 0.00 0.03 0.07 0.08 0.04 0.03 0.07 0.08 0.05
0.00 0.00 0.01 0.02 0.04 0.08 0.07 0.04 0.03 0.12 0.05 0.01 0.03 0.03 0.07 0.08 0.08 0.07 0.02 0.05 0.09 0.09 0.05 0.06 0.10 0.12 0.12 0.11 0.08 0.13 0.23 0.25 0.27 0.24 0.01 0.05 0.22 0.06 0.01 0.01 0.00 0.01 0.03 0.02
0.00 0.01 0.01 0.03 0.05 0.07 0.05 0.04 0.10 0.17 0.09 0.03 0.02 0.00 0.00 0.01 0.02 0.05 0.03 0.04 0.11 0.07 0.04 0.09 0.07 0.11 0.16 0.24 0.24 0.23 0.26 0.19 0.33 0.31 0.09 0.32 0.10 0.00 0.00 0.00 0.00 0.00 0.00 0.00
0.03 0.03 0.02 0.03 0.04 0.08 0.08 0.06 0.13 0.18 0.12 0.05 0.04 0.03 0.03 0.02 0.01 0.02 0.01 0.01 0.02 0.07 0.17 0.32 0.29 0.17 0.16 0.09 0.11 0.20 0.28 0.34 0.49 0.44 0.31 0.17 0.03 0.00 0.00 0.01 0.01 0.00 0.00 0.01
0.04 0.05 0.06 0.06 0.06 0.07 0.14 0.09 0.16 0.23 0.32 0.15 0.05 0.05 0.05 0.06 0.08 0.07 0.02 0.00 0.01 0.09 0.22 0.27 0.25 0.15 0.14 0.09 0.06 0.06 0.13 0.11 0.19 0.18 0.22 0.15 0.02 0.00 0.00 0.01 0.08 0.01 0.00 0.00
0.06 0.05 0.05 0.08 0.08 0.08 0.15 0.14 0.18 0.31 0.26 0.09 0.13 0.14 0.14 0.09 0.06 0.07 0.05 0.04 0.07 0.12 0.24 0.32 0.21 0.11 0.02 0.03 0.03 0.05 0.17 0.47 0.64 0.47 0.41 0.23 0.03 0.00 0.00 0.04 0.03 0.00 0.00 0.00
0.08 0.06 0.05 0.07 0.09 0.09 0.18 0.13 0.18 0.31 0.26 0.08 0.06 0.08 0.09 0.14 0.23 0.16 0.10 0.13 0.16 0.27 0.25 0.20 0.12 0.11 0.03 0.03 0.00 0.03 0.06 0.09 0.10 0.22 0.39 0.27 0.03 0.02 0.03 0.01 0.02 0.02 0.02 0.02
0.09 0.06 0.05 0.04 0.04 0.07 0.18 0.18 0.14 0.28 0.42 0.16 0.07 0.05 0.02 0.02 0.08 0.27 0.26 0.18 0.16 0.28 0.33 0.24 0.23 0.19 0.13 0.10 0.07 0.03 0.06 0.07 0.05 0.07 0.04 0.01 0.01 0.02 0.04 0.02 0.03 0.02 0.01 0.01
0.09 0.06 0.05 0.03 0.03 0.07 0.11 0.10 0.28 0.38 0.45 0.14 0.02 0.00 0.00 0.00 0.01 0.13 0.44 0.36 0.32 0.24 0.21 0.33 0.33 0.26 0.12 0.15 0.13 0.08 0.06 0.04 0.14 0.14 0.03 0.00 0.00 0.01 0.06 0.08 0.03 0.02 0.01 0.00
0.06 0.05 0.05 0.04 0.04 0.06 0.10 0.11 0.23 0.37 0.49 0.30 0.03 0.01 0.01 0.02 0.01 0.03 0.07 0.18 0.36 0.52 0.52 0.59 0.38 0.24 0.12 0.10 0.06 0.07 0.10 0.12 0.14 0.13 0.07 0.05 0.03 0.01 0.06 0.12 0.04 0.02 0.00 0.00
0.03 0.03 0.04 0.05 0.05 0.09 0.12 0.14 0.14 0.14 0.27 0.28 0.08 0.02 0.01 0.02 0.02 0.03 0.02 0.05 0.11 0.38 0.62 0.49 0.33 0.15 0.09 0.03 0.02 0.02 0.02 0.11 0.17 0.16 0.10 0.07 0.03 0.03 0.05 0.17 0.09 0.02 0.01 0.00
0.03 0.02 0.02 0.04 0.04 0.08 0.18 0.14 0.10 0.11 0.20 0.31 0.09 0.00 0.00 0.00 0.00 0.01 0.02 0.02 0.06 0.20 0.25 0.18 0.04 0.02 0.13 0.07 0.02 0.00 0.00 0.00 0.01 0.02 0.04 0.10 0.19 0.14 0.09 0.14 0.12 0.08 0.02 0.00
0.03 0.03 0.03 0.04 0.06 0.04 0.17 0.20 0.12 0.11 0.27 0.38 0.10 0.03 0.01 0.02 0.04 0.04 0.04 0.05 0.08 0.16 0.14 0.05 0.01 0.03 0.11 0.06 0.01 0.00 0.00 0.00 0.00 0.02 0.10 0.11 0.10 0.10 0.04 0.06 0.08 0.08 0.12 0.06
0.01 0.02 0.03 0.08 0.08 0.06 0.03 0.04 0.03 0.13 0.24 0.38 0.21 0.09 0.09 0.02 0.03 0.07 0.06 0.08 0.17 0.12 0.09 0.04 0.02 0.03 0.09 0.06 0.00 0.00 0.00 0.00 0.00 0.01 0.03 0.03 0.02 0.03 0.03 0.02 0.02 0.02 0.02 0.03
0.01 0.02 0.05 0.08 0.10 0.07 0.04 0.04 0.03 0.08 0.14 0.22 0.10 0.07 0.18 0.11 0.07 0.08 0.05 0.08 0.12 0.10 0.08 0.03 0.05 0.05 0.06 0.01 0.00 0.00 0.00 0.00 0.00 0.01 0.01 0.01 0.01 0.03 0.04 0.02 0.02 0.01 0.00 0.00
0.02 0.03 0.08 0.09 0.04 0.05 0.11 0.10 0.12 0.12 0.08 0.07 0.04 0.05 0.15 0.22 0.17 0.14 0.12 0.11 0.12 0.15 0.05 0.03 0.08 0.02 0.00 0.00 0.00 0.00 0.00 0.00 0.00 0.01 0.00 0.01 0.01 0.01 0.01 0.00 0.00 0.00 0.00 0.00
0.03 0.04 0.09 0.19 0.13 0.15 0.18 0.17 0.10 0.07 0.10 0.04 0.01 0.00 0.03 0.10 0.23 0.26 0.23 0.23 0.17 0.19 0.09 0.12 0.12 0.01 0.00 0.00 0.00 0.01 0.01 0.00 0.00 0.01 0.01 0.01 0.01 0.00 0.00 0.00 0.00 0.00 0.00 0.00
0.01 0.09 0.18 0.16 0.16 0.23 0.16 0.10 0.12 0.15 0.10 0.10 0.07 0.08 0.08 0.07 0.08 0.19 0.32 0.32 0.21 0.16 0.11 0.26 0.12 0.02 0.02 0.02 0.02 0.02 0.01 0.00 0.00 0.00 0.01 0.00 0.01 0.01 0.00 0.00 0.00 0.00 0.00 0.00
0.06 0.19 0.33 0.16 0.18 0.17 0.16 0.11 0.07 0.17 0.20 0.22 0.40 0.51 0.45 0.31 0.25 0.31 0.17 0.19 0.11 0.09 0.12 0.10 0.06 0.04 0.01 0.03 0.04 0.02 0.01 0.00 0.00 0.00 0.00 0.02 0.04 0.05 0.01 0.00 0.00 0.00 0.00 0.00
0.17 0.14 0.20 0.11 0.10 0.01 0.03 0.08 0.20 0.33 0.27 0.18 0.35 0.63 0.47 0.30 0.35 0.27 0.13 0.10 0.07 0.08 0.04 0.10 0.06 0.01 0.00 0.05 0.04 0.05 0.10 0.01 0.01 0.01 0.00 0.01 0.02 0.02 0.00 0.00 0.00 0.00 0.00 0.00
0.17 0.19 0.13 0.03 0.03 0.05 0.11 0.10 0.08 0.06 0.04 0.06 0.25 0.40 0.33 0.36 0.29 0.13 0.13 0.14 0.06 0.04 0.17 0.18 0.01 0.00 0.00 0.01 0.01 0.01 0.10 0.04 0.00 0.00 0.00 0.00 0.00 0.00 0.00 0.00 0.00 0.00 0.00 0.00
0.13 0.08 0.02 0.04 0.04 0.05 0.04 0.02 0.01 0.00 0.01 0.05 0.14 0.38 0.24 0.24 0.13 0.14 0.08 0.07 0.06 0.16 0.07 0.00 0.00 0.00 0.00 0.02 0.08 0.04 0.06 0.01 0.00 0.00 0.00 0.00 0.00 0.00 0.00 0.00 0.00 0.00 0.00 0.00
0.02 0.02 0.02 0.01 0.01 0.01 0.01 0.01 0.01 0.01 0.02 0.06 0.10 0.19 0.12 0.15 0.02 0.01 0.01 0.04 0.06 0.00 0.00 0.00 0.00 0.00 0.00 0.00 0.03 0.02 0.00 0.00 0.00 0.00 0.00 0.00 0.00 0.00 0.00 0.00 0.00 0.00 0.00 0.00

GFSNW_prec_precacc12_186.txt.gz
Total_Precipitation_Accumulation
0.01 0.00 0.00 0.00 0.00 0.01 0.00 0.01 0.01 0.02 0.09 0.06 0.02 0.00 0.00 0.00 0.00 0.00 0.00 0.00 0.00 0.00 0.00 0.00 0.00 0.01 0.01 0.01 0.03 0.03 0.06 0.13 0.07 0.00 0.00 0.00 0.00 0.01 0.02 0.10 0.13 0.05 0.04 0.01
0.03 0.01 0.00 0.00 0.00 0.00 0.01 0.02 0.01 0.02 0.25 0.09 0.04 0.00 0.00 0.00 0.00 0.00 0.00 0.00 0.00 0.00 0.00 0.00 0.00 0.00 0.00 0.00 0.05 0.13 0.17 0.37 0.29 0.06 0.01 0.00 0.04 0.12 0.18 0.22 0.23 0.11 0.11 0.03
0.01 0.01 0.00 0.00 0.00 0.00 0.01 0.04 0.00 0.01 0.08 0.17 0.04 0.03 0.02 0.00 0.00 0.00 0.00 0.00 0.01 0.01 0.00 0.00 0.00 0.00 0.00 0.00 0.02 0.06 0.17 0.26 0.22 0.20 0.06 0.04 0.10 0.09 0.13 0.33 0.38 0.13 0.05 0.01
0.02 0.02 0.01 0.01 0.01 0.02 0.00 0.01 0.02 0.00 0.01 0.03 0.13 0.10 0.04 0.01 0.01 0.01 0.03 0.02 0.03 0.03 0.03 0.00 0.00 0.00 0.00 0.00 0.03 0.10 0.13 0.17 0.04 0.03 0.01 0.05 0.11 0.12 0.10 0.26 0.32 0.42 0.11 0.01
0.03 0.03 0.03 0.04 0.04 0.03 0.00 0.00 0.00 0.00 0.00 0.00 0.01 0.06 0.07 0.07 0.07 0.02 0.01 0.02 0.01 0.03 0.06 0.02 0.01 0.00 0.00 0.00 0.02 0.12 0.18 0.23 0.10 0.07 0.00 0.01 0.05 0.08 0.08 0.04 0.03 0.09 0.09 0.08
0.01 0.01 0.02 0.03 0.04 0.02 0.00 0.00 0.00 0.02 0.01 0.00 0.00 0.00 0.01 0.03 0.03 0.01 0.01 0.02 0.01 0.01 0.01 0.01 0.02 0.01 0.01 0.01 0.01 0.03 0.07 0.10 0.13 0.14 0.01 0.02 0.09 0.02 0.01 0.01 0.00 0.01 0.03 0.03
0.00 0.00 0.01 0.02 0.03 0.01 0.00 0.00 0.02 0.04 0.01 0.00 0.00 0.00 0.00 0.00 0.00 0.00 0.00 0.00 0.03 0.00 0.00 0.02 0.01 0.00 0.01 0.01 0.01 0.04 0.06 0.07 0.15 0.15 0.03 0.14 0.06 0.00 0.00 0.00 0.00 0.00 0.00 0.00
0.03 0.01 0.00 0.00 0.01 0.02 0.00 0.00 0.04 0.06 0.04 0.01 0.00 0.00 0.00 0.00 0.00 0.00 0.00 0.00 0.00 0.00 0.01 0.07 0.11 0.10 0.06 0.02 0.01 0.02 0.03 0.10 0.23 0.23 0.17 0.12 0.04 0.00 0.00 0.01 0.01 0.00 0.00 0.01
0.06 0.05 0.04 0.03 0.02 0.03 0.02 0.01 0.05 0.08 0.08 0.01 0.00 0.00 0.00 0.00 0.00 0.00 0.00 0.00 0.00 0.01 0.06 0.12 0.15 0.12 0.10 0.06 0.03 0.02 0.08 0.08 0.17 0.20 0.25 0.13 0.02 0.00 0.00 0.02 0.10 0.02 0.01 0.02
0.05 0.05 0.05 0.05 0.06 0.07 0.05 0.02 0.04 0.07 0.08 0.01 0.00 0.00 0.00 0.00 0.00 0.00 0.00 0.00 0.00 0.02 0.06 0.09 0.08 0.06 0.01 0.01 0.00 0.01 0.08 0.24 0.44 0.44 0.48 0.35 0.07 0.01 0.01 0.08 0.05 0.02 0.05 0.04
0.04 0.04 0.04 0.05 0.07 0.11 0.12 0.03 0.03 0.06 0.02 0.00 0.00 0.00 0.00 0.00 0.00 0.00 0.00 0.01 0.02 0.05 0.07 0.10 0.06 0.05 0.01 0.01 0.00 0.00 0.00 0.01 0.02 0.10 0.29 0.28 0.06 0.03 0.06 0.04 0.03 0.03 0.03 0.04
0.05 0.05 0.05 0.06 0.06 0.12 0.24 0.14 0.03 0.12 0.16 0.03 0.00 0.00 0.00 0.00 0.00 0.02 0.03 0.03 0.02 0.07 0.10 0.10 0.11 0.13 0.10 0.06 0.04 0.01 0.02 0.03 0.02 0.05 0.02 0.01 0.02 0.04 0.06 0.03 0.03 0.02 0.01 0.01
0.03 0.04 0.05 0.08 0.10 0.16 0.28 0.24 0.26 0.39 0.52 0.17 0.00 0.00 0.00 0.00 0.01 0.05 0.22 0.17 0.17 0.12 0.11 0.21 0.22 0.17 0.09 0.07 0.04 0.03 0.01 0.03 0.07 0.07 0.02 0.00 0.00 0.00 0.01 0.01 0.01 0.02 0.01 0.00
0.01 0.02 0.05 0.10 0.12 0.16 0.18 0.10 0.12 0.16 0.36 0.30 0.02 0.00 0.01 0.02 0.01 0.02 0.06 0.13 0.26 0.42 0.51 0.63 0.41 0.20 0.10 0.07 0.04 0.02 0.00 0.02 0.04 0.03 0.01 0.00 0.00 0.01 0.04 0.09 0.03 0.02 0.00 0.00
0.00 0.02 0.05 0.07 0.08 0.12 0.12 0.06 0.04 0.04 0.18 0.21 0.05 0.00 0.01 0.02 0.02 0.03 0.02 0.05 0.10 0.33 0.73 0.67 0.41 0.18 0.14 0.10 0.06 0.03 0.00 0.01 0.05 0.03 0.00 0.01 0.00 0.01 0.03 0.14 0.08 0.02 0.01 0.00
0.03 0.04 0.04 0.04 0.05 0.05 0.03 0.03 0.03 0.04 0.12 0.28 0.07 0.00 0.00 0.00 0.00 0.01 0.02 0.02 0.07 0.31 0.51 0.42 0.25 0.15 0.33 0.35 0.08 0.00 0.00 0.00 0.00 0.00 0.01 0.07 0.17 0.10 0.06 0.06 0.03 0.01 0.00 0.00
0.04 0.05 0.03 0.05 0.06 0.01 0.03 0.05 0.05 0.08 0.27 0.56 0.21 0.00 0.00 0.04 0.02 0.01 0.03 0.03 0.03 0.13 0.16 0.10 0.03 0.02 0.23 0.19 0.04 0.00 0.00 0.00 0.00 0.00 0.04 0.05 0.07 0.08 0.03 0.03 0.04 0.01 0.08 0.06
0.03 0.03 0.02 0.03 0.04 0.01 0.00 0.01 0.03 0.04 0.17 0.30 0.17 0.00 0.00 0.01 0.01 0.02 0.04 0.06 0.09 0.06 0.04 0.01 0.00 0.01 0.06 0.06 0.00 0.00 0.00 0.00 0.00 0.00 0.02 0.01 0.01 0.01 0.01 0.01 0.01 0.01 0.03 0.04
0.03 0.03 0.02 0.01 0.01 0.01 0.01 0.01 0.02 0.03 0.05 0.07 0.03 0.01 0.00 0.02 0.04 0.05 0.01 0.02 0.01 0.01 0.02 0.00 0.01 0.01 0.04 0.01 0.00 0.00 0.00 0.00 0.00 0.00 0.00 0.00 0.00 0.01 0.02 0.02 0.03 0.01 0.00 0.01
0.02 0.01 0.01 0.00 0.02 0.02 0.07 0.06 0.07 0.10 0.09 0.07 0.02 0.00 0.00 0.07 0.13 0.08 0.03 0.01 0.01 0.02 0.01 0.00 0.02 0.00 0.00 0.00 0.00 0.00 0.00 0.00 0.00 0.01 0.00 0.00 0.01 0.01 0.01 0.01 0.01 0.00 0.00 0.01
0.01 0.01 0.01 0.01 0.06 0.06 0.06 0.07 0.08 0.04 0.05 0.03 0.01 0.00 0.00 0.00 0.09 0.14 0.12 0.07 0.04 0.07 0.01 0.03 0.04 0.00 0.01 0.02 0.02 0.03 0.08 0.12 0.11 0.08 0.03 0.01 0.01 0.00 0.00 0.00 0.00 0.00 0.00 0.00
0.00 0.02 0.05 0.03 0.07 0.12 0.07 0.06 0.07 0.10 0.04 0.04 0.08 0.10 0.12 0.07 0.09 0.19 0.27 0.22 0.14 0.07 0.05 0.21 0.09 0.03 0.06 0.04 0.03 0.04 0.04 0.06 0.10 0.07 0.03 0.01 0.01 0.01 0.00 0.00 0.01 0.00 0.02 0.03
0.01 0.01 0.02 0.07 0.15 0.14 0.12 0.05 0.07 0.20 0.19 0.17 0.41 0.55 0.54 0.43 0.41 0.38 0.12 0.14 0.07 0.10 0.17 0.13 0.12 0.06 0.02 0.03 0.04 0.02 0.06 0.11 0.06 0.01 0.00 0.02 0.04 0.05 0.03 0.01 0.00 0.01 0.06 0.06
0.04 0.01 0.02 0.07 0.08 0.03 0.01 0.05 0.19 0.31 0.25 0.13 0.27 0.64 0.59 0.32 0.48 0.30 0.16 0.07 0.08 0.13 0.09 0.19 0.08 0.01 0.00 0.04 0.03 0.05 0.16 0.09 0.02 0.01 0.00 0.01 0.02 0.06 0.07 0.03 0.03 0.07 0.05 0.03
0.03 0.12 0.05 0.01 0.02 0.03 0.06 0.07 0.07 0.06 0.04 0.10 0.41 0.48 0.44 0.40 0.32 0.16 0.16 0.21 0.16 0.09 0.24 0.23 0.01 0.00 0.00 0.01 0.00 0.01 0.15 0.20 0.03 0.00 0.00 0.01 0.00 0.02 0.06 0.04 0.05 0.04 0.01 0.00
0.02 0.04 0.02 0.03 0.03 0.04 0.04 0.02 0.00 0.00 0.01 0.05 0.14 0.35 0.30 0.39 0.20 0.23 0.18 0.14 0.10 0.28 0.20 0.02 0.00 0.00 0.00 0.01 0.08 0.05 0.15 0.16 0.23 0.19 0.13 0.11 0.02 0.00 0.01 0.01 0.00 0.00 0.00 0.00
0.01 0.00 0.00 0.01 0.00 0.00 0.00 0.00 0.00 0.00 0.03 0.05 0.05 0.20 0.20 0.27 0.15 0.05 0.02 0.08 0.20 0.12 0.01 0.00 0.00 0.00 0.00 0.00 0.03 0.03 0.09 0.01 0.00 0.00 0.01 0.05 0.01 0.00 0.00 0.00 0.00 0.00 0.00 0.00

GFSNW_prec_precacc12_189.txt.gz
Total_Precipitation_Accumulation
0.01 0.00 0.00 0.00 0.00 0.00 0.00 0.00 0.00 0.00 0.04 0.01 0.00 0.00 0.00 0.00 0.00 0.00 0.00 0.00 0.00 0.00 0.00 0.00 0.00 0.01 0.00 0.00 0.00 0.01 0.04 0.07 0.04 0.00 0.00 0.00 0.00 0.03 0.10 0.28 0.32 0.16 0.08 0.01
0.02 0.01 0.00 0.00 0.00 0.00 0.00 0.00 0.00 0.00 0.16 0.04 0.00 0.00 0.00 0.00 0.00 0.00 0.00 0.00 0.00 0.00 0.00 0.00 0.00 0.00 0.00 0.00 0.00 0.03 0.10 0.18 0.13 0.01 0.01 0.02 0.09 0.18 0.29 0.40 0.36 0.15 0.18 0.04
0.01 0.01 0.00 0.00 0.00 0.00 0.00 0.02 0.00 0.00 0.05 0.17 0.04 0.02 0.01 0.00 0.00 0.00 0.00 0.00 0.01 0.00 0.00 0.00 0.00 0.00 0.00 0.00 0.00 0.02 0.09 0.14 0.13 0.09 0.01 0.01 0.03 0.08 0.15 0.35 0.39 0.14 0.08 0.01
0.02 0.01 0.01 0.00 0.02 0.02 0.00 0.01 0.01 0.00 0.00 0.04 0.17 0.14 0.06 0.01 0.01 0.01 0.03 0.01 0.02 0.02 0.03 0.00 0.00 0.00 0.00 0.00 0.00 0.01 0.06 0.06 0.02 0.01 0.01 0.03 0.02 0.01 0.04 0.23 0.30 0.40 0.10 0.01
0.03 0.04 0.04 0.04 0.04 0.02 0.00 0.00 0.00 0.00 0.00 0.00 0.00 0.04 0.09 0.11 0.14 0.08 0.06 0.05 0.04 0.03 0.03 0.01 0.00 0.00 0.00 0.00 0.00 0.01 0.05 0.10 0.07 0.05 0.00 0.01 0.04 0.04 0.02 0.02 0.03 0.09 0.09 0.07
0.01 0.01 0.03 0.03 0.03 0.01 0.00 0.00 0.00 0.00 0.00 0.00 0.00 0.00 0.01 0.04 0.03 0.02 0.04 0.06 0.04 0.03 0.01 0.00 0.01 0.01 0.00 0.00 0.00 0.00 0.01 0.02 0.04 0.03 0.00 0.01 0.02 0.00 0.00 0.00 0.00 0.00 0.03 0.03
0.00 0.00 0.01 0.02 0.03 0.01 0.00 0.00 0.00 0.00 0.00 0.00 0.00 0.00 0.00 0.00 0.00 0.00 0.00 0.00 0.00 0.00 0.00 0.00 0.00 0.00 0.00 0.00 0.00 0.00 0.01 0.02 0.05 0.04 0.01 0.07 0.01 0.00 0.00 0.00 0.00 0.00 0.00 0.00
0.02 0.01 0.00 0.00 0.02 0.02 0.00 0.00 0.00 0.01 0.01 0.00 0.00 0.00 0.00 0.00 0.00 0.00 0.00 0.00 0.00 0.00 0.00 0.00 0.00 0.00 0.00 0.00 0.00 0.00 0.00 0.03 0.09 0.09 0.06 0.05 0.02 0.00 0.00 0.01 0.01 0.00 0.00 0.01
0.04 0.04 0.04 0.03 0.02 0.02 0.01 0.00 0.00 0.01 0.02 0.00 0.00 0.00 0.00 0.00 0.00 0.00 0.00 0.00 0.00 0.00 0.00 0.01 0.01 0.01 0.01 0.01 0.00 0.00 0.03 0.05 0.15 0.15 0.17 0.08 0.01 0.00 0.00 0.02 0.09 0.02 0.01 0.03
0.04 0.04 0.05 0.06 0.06 0.07 0.03 0.00 0.00 0.01 0.01 0.00 0.00 0.00 0.00 0.00 0.00 0.00 0.00 0.00 0.00 0.00 0.00 0.00 0.00 0.01 0.01 0.01 0.00 0.00 0.03 0.10 0.23 0.23 0.29 0.23 0.05 0.01 0.01 0.06 0.04 0.02 0.05 0.06
0.02 0.03 0.04 0.06 0.09 0.12 0.08 0.01 0.01 0.02 0.00 0.00 0.00 0.00 0.00 0.00 0.00 0.00 0.00 0.00 0.00 0.00 0.00 0.00 0.01 0.02 0.00 0.00 0.00 0.00 0.00 0.00 0.01 0.04 0.12 0.14 0.04 0.03 0.06 0.04 0.04 0.03 0.03 0.04
0.02 0.03 0.04 0.05 0.08 0.16 0.22 0.12 0.02 0.08 0.14 0.02 0.00 0.00 0.00 0.00 0.00 0.00 0.00 0.01 0.00 0.00 0.01 0.03 0.06 0.05 0.05 0.04 0.03 0.01 0.01 0.01 0.01 0.01 0.01 0.00 0.02 0.04 0.03 0.02 0.01 0.01 0.01 0.01
0.02 0.03 0.05 0.08 0.12 0.20 0.28 0.22 0.23 0.40 0.59 0.25 0.03 0.00 0.00 0.00 0.00 0.00 0.02 0.01 0.00 0.00 0.03 0.08 0.15 0.14 0.07 0.05 0.03 0.01 0.00 0.02 0.03 0.02 0.01 0.00 0.00 0.00 0.00 0.00 0.00 0.00 0.00 0.00
0.01 0.01 0.04 0.09 0.13 0.21 0.19 0.11 0.16 0.27 0.27 0.14 0.00 0.00 0.00 0.00 0.01 0.01 0.00 0.00 0.01 0.04 0.14 0.45 0.37 0.20 0.10 0.07 0.04 0.02 0.00 0.01 0.01 0.00 0.00 0.00 0.00 0.00 0.00 0.00 0.00 0.00 0.00 0.00
0.00 0.01 0.04 0.06 0.09 0.14 0.12 0.09 0.10 0.06 0.08 0.07 0.00 0.00 0.00 0.00 0.00 0.02 0.01 0.01 0.02 0.22 0.57 0.65 0.39 0.18 0.15 0.12 0.08 0.03 0.00 0.00 0.01 0.01 0.00 0.00 0.00 0.00 0.00 0.00 0.00 0.00 0.00 0.00
0.03 0.04 0.04 0.05 0.06 0.05 0.01 0.00 0.00 0.00 0.05 0.16 0.04 0.00 0.00 0.01 0.00 0.01 0.01 0.01 0.04 0.27 0.51 0.42 0.26 0.16 0.38 0.44 0.09 0.00 0.00 0.00 0.00 0.00 0.00 0.00 0.00 0.00 0.00 0.01 0.01 0.01 0.00 0.00
0.04 0.05 0.04 0.05 0.05 0.00 0.00 0.00 0.01 0.03 0.16 0.49 0.21 0.00 0.00 0.04 0.02 0.01 0.01 0.02 0.03 0.09 0.14 0.11 0.03 0.03 0.28 0.26 0.05 0.00 0.00 0.00 0.00 0.00 0.00 0.00 0.00 0.00 0.01 0.01 0.04 0.01 0.02 0.02
0.03 0.03 0.02 0.04 0.02 0.00 0.00 0.00 0.02 0.01 0.08 0.24 0.15 0.00 0.00 0.00 0.01 0.01 0.02 0.04 0.07 0.06 0.04 0.01 0.00 0.01 0.07 0.08 0.00 0.00 0.00 0.00 0.00 0.00 0.00 0.00 0.00 0.00 0.01 0.01 0.01 0.00 0.01 0.01
0.03 0.02 0.01 0.00 0.00 0.00 0.00 0.00 0.02 0.01 0.03 0.04 0.02 0.01 0.00 0.00 0.00 0.00 0.01 0.01 0.01 0.01 0.03 0.01 0.01 0.02 0.05 0.01 0.00 0.00 0.00 0.00 0.00 0.00 0.00 0.00 0.00 0.01 0.02 0.02 0.01 0.00 0.00 0.01
0.01 0.00 0.00 0.00 0.00 0.01 0.02 0.02 0.04 0.11 0.12 0.07 0.02 0.00 0.00 0.00 0.00 0.00 0.02 0.01 0.01 0.02 0.01 0.00 0.02 0.01 0.00 0.01 0.01 0.03 0.03 0.00 0.00 0.00 0.00 0.00 0.01 0.01 0.02 0.03 0.02 0.01 0.00 0.01
0.00 0.00 0.00 0.00 0.01 0.03 0.01 0.03 0.07 0.04 0.07 0.04 0.01 0.00 0.00 0.00 0.01 0.02 0.04 0.06 0.03 0.06 0.00 0.01 0.01 0.00 0.01 0.05 0.07 0.08 0.10 0.13 0.11 0.08 0.03 0.01 0.02 0.01 0.01 0.01 0.01 0.00 0.00 0.00
0.00 0.00 0.00 0.00 0.01 0.07 0.05 0.05 0.06 0.10 0.05 0.02 0.05 0.09 0.14 0.09 0.14 0.25 0.16 0.15 0.12 0.05 0.03 0.15 0.05 0.03 0.08 0.04 0.03 0.03 0.04 0.06 0.12 0.11 0.07 0.02 0.01 0.01 0.00 0.00 0.01 0.00 0.02 0.03
0.00 0.00 0.00 0.02 0.07 0.11 0.09 0.03 0.04 0.15 0.15 0.09 0.26 0.46 0.51 0.44 0.46 0.42 0.14 0.13 0.05 0.06 0.14 0.13 0.16 0.09 0.03 0.03 0.04 0.02 0.06 0.14 0.21 0.09 0.08 0.04 0.04 0.06 0.03 0.01 0.00 0.01 0.06 0.07
0.00 0.00 0.00 0.01 0.05 0.02 0.00 0.02 0.11 0.16 0.21 0.11 0.27 0.68 0.62 0.32 0.51 0.29 0.17 0.03 0.08 0.14 0.11 0.24 0.12 0.02 0.00 0.01 0.01 0.03 0.15 0.12 0.11 0.04 0.02 0.01 0.03 0.06 0.07 0.03 0.03 0.08 0.07 0.09
0.00 0.05 0.02 0.00 0.00 0.00 0.01 0.01 0.02 0.02 0.02 0.09 0.41 0.40 0.44 0.40 0.31 0.16 0.16 0.22 0.19 0.16 0.33 0.27 0.05 0.01 0.01 0.00 0.00 0.01 0.13 0.21 0.08 0.05 0.01 0.02 0.00 0.02 0.06 0.04 0.06 0.07 0.05 0.04
0.00 0.00 0.00 0.00 0.00 0.00 0.00 0.00 0.00 0.00 0.01 0.04 0.12 0.22 0.25 0.43 0.22 0.31 0.28 0.19 0.21 0.38 0.28 0.11 0.05 0.01 0.00 0.00 0.03 0.04 0.15 0.18 0.28 0.25 0.16 0.11 0.04 0.01 0.01 0.02 0.03 0.02 0.01 0.00
0.00 0.00 0.00 0.00 0.00 0.00 0.00 0.00 0.00 0.00 0.03 0.04 0.03 0.14 0.18 0.22 0.17 0.12 0.07 0.19 0.29 0.16 0.03 0.01 0.01 0.02 0.01 0.00 0.03 0.03 0.09 0.03 0.01 0.01 0.06 0.15 0.07 0.05 0.09 0.04 0.02 0.01 0.00 0.00

GFSNW_prec_precacc12_192.txt.gz
Total_Precipitation_Accumulation
0.01 0.00 0.00 0.00 0.00 0.00 0.00 0.00 0.00 0.00 0.02 0.00 0.00 0.00 0.00 0.00 0.00 0.00 0.00 0.00 0.00 0.00 0.00 0.00 0.00 0.01 0.00 0.00 0.00 0.01 0.04 0.10 0.06 0.00 0.00 0.00 0.01 0.11 0.34 0.52 0.49 0.30 0.16 0.02
0.01 0.01 0.00 0.00 0.00 0.00 0.00 0.00 0.00 0.00 0.09 0.01 0.00 0.00 0.00 0.00 0.00 0.00 0.00 0.00 0.00 0.00 0.00 0.00 0.00 0.00 0.00 0.00 0.00 0.02 0.05 0.07 0.05 0.01 0.01 0.04 0.12 0.19 0.36 0.56 0.50 0.21 0.26 0.04
0.00 0.00 0.00 0.00 0.00 0.00 0.00 0.01 0.00 0.00 0.05 0.15 0.03 0.00 0.00 0.00 0.00 0.00 0.00 0.00 0.00 0.00 0.00 0.00 0.00 0.00 0.00 0.00 0.00 0.00 0.03 0.03 0.04 0.04 0.01 0.01 0.01 0.03 0.07 0.25 0.37 0.16 0.14 0.02
0.02 0.01 0.00 0.00 0.01 0.02 0.00 0.01 0.01 0.00 0.00 0.05 0.19 0.15 0.07 0.02 0.02 0.01 0.02 0.01 0.02 0.02 0.01 0.00 0.00 0.00 0.00 0.00 0.00 0.00 0.02 0.01 0.01 0.00 0.01 0.03 0.02 0.01 0.01 0.10 0.17 0.27 0.08 0.01
0.04 0.04 0.03 0.04 0.03 0.01 0.00 0.00 0.00 0.00 0.00 0.00 0.00 0.04 0.10 0.13 0.16 0.10 0.07 0.07 0.06 0.06 0.03 0.01 0.01 0.01 0.00 0.00 0.00 0.02 0.01 0.01 0.01 0.01 0.00 0.01 0.03 0.02 0.00 0.00 0.01 0.04 0.04 0.04
0.01 0.02 0.03 0.03 0.03 0.00 0.00 0.00 0.00 0.00 0.00 0.00 0.00 0.00 0.01 0.04 0.03 0.02 0.04 0.05 0.05 0.06 0.04 0.01 0.00 0.00 0.00 0.00 0.00 0.01 0.02 0.02 0.02 0.01 0.00 0.01 0.01 0.00 0.00 0.00 0.00 0.00 0.01 0.02
0.00 0.00 0.01 0.02 0.02 0.00 0.00 0.00 0.00 0.00 0.00 0.00 0.00 0.00 0.00 0.00 0.00 0.00 0.00 0.00 0.00 0.00 0.00 0.00 0.00 0.00 0.00 0.00 0.00 0.00 0.00 0.01 0.03 0.02 0.01 0.05 0.01 0.00 0.00 0.00 0.00 0.00 0.00 0.00
0.01 0.00 0.00 0.00 0.02 0.00 0.00 0.00 0.00 0.00 0.00 0.00 0.00 0.00 0.00 0.00 0.00 0.00 0.00 0.00 0.00 0.00 0.00 0.00 0.00 0.00 0.00 0.00 0.00 0.00 0.00 0.00 0.02 0.02 0.01 0.01 0.01 0.00 0.00 0.00 0.00 0.00 0.00 0.00
0.03 0.03 0.02 0.02 0.02 0.01 0.00 0.00 0.00 0.00 0.00 0.00 0.00 0.00 0.00 0.00 0.00 0.00 0.00 0.00 0.00 0.00 0.00 0.01 0.00 0.00 0.00 0.00 0.00 0.00 0.01 0.01 0.10 0.13 0.16 0.06 0.01 0.00 0.00 0.02 0.02 0.00 0.01 0.03
0.03 0.03 0.04 0.05 0.05 0.05 0.01 0.00 0.00 0.00 0.00 0.00 0.00 0.00 0.00 0.00 0.00 0.00 0.00 0.00 0.00 0.00 0.00 0.01 0.01 0.00 0.00 0.00 0.00 0.00 0.00 0.02 0.05 0.07 0.16 0.14 0.04 0.01 0.01 0.05 0.02 0.01 0.06 0.07
0.02 0.03 0.03 0.05 0.09 0.11 0.05 0.01 0.00 0.01 0.01 0.00 0.00 0.00 0.00 0.00 0.00 0.00 0.00 0.00 0.00 0.00 0.00 0.01 0.00 0.00 0.00 0.00 0.00 0.00 0.00 0.00 0.00 0.01 0.04 0.08 0.02 0.01 0.03 0.03 0.02 0.01 0.02 0.02
0.01 0.01 0.02 0.04 0.08 0.17 0.19 0.12 0.01 0.04 0.12 0.02 0.00 0.00 0.00 0.00 0.00 0.00 0.00 0.00 0.00 0.00 0.01 0.02 0.03 0.02 0.01 0.01 0.02 0.00 0.00 0.01 0.01 0.01 0.00 0.00 0.01 0.02 0.03 0.02 0.01 0.00 0.00 0.00
0.00 0.01 0.03 0.07 0.10 0.19 0.26 0.23 0.21 0.37 0.57 0.26 0.03 0.00 0.00 0.00 0.00 0.00 0.00 0.00 0.00 0.00 0.01 0.03 0.02 0.02 0.00 0.00 0.01 0.01 0.00 0.01 0.02 0.02 0.00 0.00 0.00 0.00 0.00 0.00 0.00 0.00 0.00 0.00
0.00 0.00 0.03 0.08 0.14 0.21 0.16 0.11 0.15 0.29 0.41 0.17 0.00 0.00 0.00 0.00 0.00 0.00 0.00 0.00 0.00 0.02 0.05 0.19 0.17 0.08 0.04 0.03 0.03 0.02 0.00 0.01 0.01 0.01 0.00 0.00 0.00 0.00 0.00 0.00 0.00 0.00 0.00 0.00
0.00 0.01 0.03 0.03 0.05 0.11 0.10 0.09 0.11 0.17 0.18 0.07 0.00 0.00 0.00 0.00 0.00 0.00 0.00 0.00 0.01 0.08 0.28 0.33 0.17 0.08 0.12 0.12 0.08 0.03 0.00 0.00 0.02 0.01 0.00 0.00 0.00 0.00 0.00 0.00 0.00 0.00 0.00 0.00
0.02 0.04 0.04 0.03 0.03 0.03 0.01 0.01 0.00 0.00 0.03 0.13 0.02 0.00 0.00 0.00 0.00 0.00 0.00 0.00 0.03 0.22 0.41 0.33 0.25 0.15 0.39 0.47 0.09 0.00 0.00 0.00 0.00 0.00 0.00 0.00 0.00 0.00 0.00 0.00 0.00 0.00 0.00 0.00
0.04 0.04 0.04 0.07 0.03 0.00 0.00 0.00 0.01 0.02 0.09 0.30 0.16 0.00 0.00 0.03 0.01 0.00 0.01 0.00 0.01 0.06 0.14 0.13 0.04 0.03 0.28 0.28 0.05 0.00 0.00 0.00 0.00 0.00 0.00 0.00 0.00 0.00 0.00 0.00 0.01 0.00 0.02 0.02
0.03 0.03 0.02 0.05 0.02 0.00 0.00 0.00 0.02 0.01 0.03 0.02 0.03 0.00 0.00 0.00 0.00 0.01 0.01 0.02 0.02 0.05 0.05 0.02 0.01 0.02 0.09 0.09 0.00 0.00 0.00 0.00 0.00 0.00 0.00 0.00 0.00 0.00 0.00 0.01 0.01 0.00 0.01 0.01
0.03 0.02 0.01 0.01 0.00 0.00 0.00 0.00 0.01 0.00 0.02 0.03 0.02 0.01 0.00 0.00 0.00 0.00 0.00 0.01 0.02 0.02 0.04 0.01 0.02 0.03 0.07 0.01 0.00 0.00 0.00 0.00 0.01 0.02 0.01 0.00 0.00 0.00 0.00 0.02 0.01 0.00 0.00 0.01
0.02 0.00 0.00 0.00 0.00 0.00 0.00 0.01 0.03 0.12 0.13 0.06 0.02 0.00 0.00 0.00 0.00 0.00 0.00 0.00 0.01 0.03 0.01 0.01 0.03 0.01 0.00 0.01 0.01 0.04 0.07 0.07 0.04 0.04 0.01 0.00 0.01 0.01 0.02 0.03 0.02 0.02 0.01 0.01
0.00 0.00 0.00 0.00 0.00 0.01 0.01 0.02 0.06 0.04 0.07 0.04 0.01 0.00 0.01 0.01 0.02 0.05 0.04 0.03 0.03 0.07 0.00 0.03 0.04 0.01 0.02 0.07 0.13 0.16 0.18 0.16 0.11 0.08 0.04 0.03 0.03 0.01 0.01 0.02 0.02 0.03 0.02 0.00
0.00 0.00 0.00 0.00 0.00 0.02 0.04 0.05 0.06 0.10 0.04 0.02 0.04 0.08 0.14 0.11 0.19 0.35 0.21 0.14 0.11 0.05 0.05 0.19 0.06 0.08 0.14 0.10 0.06 0.05 0.05 0.05 0.12 0.17 0.20 0.08 0.05 0.01 0.01 0.01 0.01 0.00 0.02 0.03
0.00 0.00 0.00 0.01 0.02 0.06 0.07 0.03 0.04 0.11 0.11 0.06 0.18 0.37 0.48 0.41 0.45 0.43 0.17 0.15 0.06 0.05 0.13 0.15 0.26 0.14 0.05 0.04 0.03 0.01 0.06 0.14 0.23 0.20 0.13 0.10 0.03 0.01 0.02 0.02 0.00 0.01 0.06 0.07
0.00 0.00 0.00 0.00 0.01 0.02 0.00 0.01 0.07 0.09 0.09 0.04 0.19 0.65 0.64 0.33 0.45 0.22 0.16 0.03 0.08 0.16 0.19 0.33 0.17 0.03 0.01 0.01 0.00 0.01 0.07 0.12 0.13 0.12 0.04 0.02 0.04 0.05 0.07 0.04 0.03 0.08 0.07 0.09
0.00 0.01 0.01 0.00 0.00 0.00 0.00 0.00 0.00 0.00 0.00 0.07 0.38 0.38 0.43 0.34 0.30 0.16 0.16 0.21 0.26 0.31 0.35 0.28 0.10 0.02 0.01 0.01 0.00 0.01 0.05 0.17 0.09 0.09 0.05 0.02 0.01 0.02 0.06 0.04 0.06 0.07 0.05 0.05
0.00 0.00 0.00 0.00 0.00 0.00 0.00 0.00 0.00 0.00 0.00 0.04 0.11 0.16 0.18 0.41 0.22 0.34 0.36 0.28 0.29 0.35 0.28 0.14 0.06 0.01 0.00 0.00 0.00 0.02 0.09 0.17 0.29 0.27 0.17 0.13 0.05 0.01 0.01 0.03 0.03 0.03 0.03 0.02
0.00 0.00 0.00 0.00 0.00 0.00 0.00 0.00 0.00 0.00 0.03 0.04 0.04 0.09 0.13 0.17 0.16 0.16 0.20 0.26 0.29 0.16 0.04 0.02 0.02 0.03 0.01 0.00 0.01 0.01 0.08 0.03 0.02 0.01 0.09 0.18 0.08 0.08 0.14 0.08 0.05 0.04 0.03 0.02

GFSNW_prec_precacc12_195.txt.gz
Total_Precipitation_Accumulation
0.00 0.00 0.00 0.00 0.00 0.00 0.00 0.00 0.00 0.00 0.01 0.00 0.00 0.00 0.00 0.00 0.00 0.00 0.00 0.00 0.00 0.00 0.00 0.00 0.00 0.01 0.00 0.00 0.00 0.01 0.03 0.08 0.06 0.00 0.00 0.00 0.02 0.12 0.40 0.62 0.61 0.39 0.24 0.06
0.01 0.00 0.00 0.00 0.00 0.00 0.00 0.00 0.00 0.00 0.04 0.01 0.00 0.00 0.00 0.00 0.00 0.00 0.00 0.00 0.00 0.00 0.00 0.00 0.00 0.00 0.00 0.00 0.00 0.02 0.05 0.07 0.05 0.01 0.01 0.06 0.14 0.21 0.34 0.51 0.48 0.24 0.34 0.08
0.00 0.00 0.00 0.00 0.00 0.00 0.00 0.00 0.00 0.00 0.04 0.10 0.02 0.00 0.00 0.00 0.00 0.00 0.00 0.00 0.00 0.00 0.00 0.00 0.00 0.00 0.00 0.00 0.00 0.00 0.02 0.03 0.03 0.03 0.01 0.03 0.02 0.02 0.05 0.18 0.30 0.11 0.14 0.02
0.01 0.00 0.00 0.00 0.01 0.01 0.00 0.00 0.01 0.00 0.01 0.05 0.12 0.10 0.06 0.02 0.01 0.01 0.01 0.01 0.01 0.02 0.01 0.00 0.00 0.00 0.00 0.00 0.00 0.00 0.01 0.01 0.01 0.00 0.01 0.02 0.01 0.00 0.00 0.02 0.04 0.14 0.05 0.01
0.04 0.04 0.02 0.02 0.01 0.00 0.00 0.00 0.00 0.00 0.00 0.00 0.01 0.04 0.09 0.13 0.17 0.11 0.09 0.09 0.08 0.07 0.05 0.03 0.03 0.02 0.01 0.01 0.01 0.03 0.04 0.04 0.03 0.01 0.00 0.00 0.00 0.00 0.00 0.00 0.00 0.02 0.02 0.01
0.02 0.02 0.02 0.02 0.01 0.00 0.00 0.00 0.00 0.00 0.00 0.00 0.00 0.00 0.01 0.05 0.03 0.03 0.04 0.05 0.06 0.08 0.06 0.02 0.02 0.01 0.02 0.01 0.02 0.04 0.07 0.08 0.06 0.04 0.01 0.03 0.04 0.00 0.00 0.00 0.00 0.00 0.00 0.00
0.01 0.00 0.00 0.01 0.02 0.00 0.00 0.00 0.00 0.00 0.00 0.00 0.00 0.00 0.00 0.00 0.00 0.00 0.00 0.00 0.00 0.01 0.00 0.00 0.00 0.00 0.00 0.00 0.00 0.01 0.02 0.03 0.06 0.05 0.03 0.08 0.02 0.00 0.00 0.00 0.00 0.00 0.00 0.00
0.01 0.00 0.00 0.00 0.02 0.00 0.00 0.00 0.00 0.00 0.00 0.00 0.00 0.00 0.00 0.00 0.00 0.00 0.00 0.00 0.00 0.00 0.00 0.00 0.00 0.00 0.00 0.00 0.00 0.00 0.00 0.01 0.02 0.03 0.02 0.01 0.00 0.00 0.00 0.00 0.00 0.00 0.00 0.00
0.02 0.01 0.01 0.01 0.01 0.00 0.00 0.00 0.00 0.00 0.00 0.00 0.00 0.00 0.00 0.00 0.00 0.00 0.00 0.00 0.00 0.00 0.00 0.02 0.02 0.01 0.00 0.00 0.00 0.00 0.00 0.00 0.06 0.06 0.09 0.03 0.00 0.00 0.00 0.01 0.03 0.00 0.00 0.01
0.02 0.02 0.03 0.03 0.03 0.02 0.00 0.00 0.00 0.00 0.01 0.00 0.00 0.00 0.00 0.00 0.00 0.00 0.00 0.00 0.00 0.00 0.01 0.03 0.03 0.01 0.00 0.00 0.00 0.00 0.00 0.03 0.05 0.04 0.06 0.02 0.00 0.00 0.00 0.03 0.01 0.01 0.04 0.05
0.02 0.03 0.03 0.05 0.07 0.07 0.02 0.02 0.00 0.01 0.02 0.01 0.00 0.00 0.00 0.01 0.01 0.03 0.03 0.01 0.01 0.01 0.02 0.03 0.02 0.01 0.00 0.00 0.00 0.00 0.01 0.01 0.01 0.03 0.03 0.01 0.00 0.00 0.00 0.01 0.01 0.01 0.01 0.01
0.00 0.01 0.01 0.02 0.06 0.13 0.12 0.07 0.02 0.03 0.11 0.03 0.00 0.00 0.00 0.00 0.01 0.01 0.02 0.01 0.01 0.01 0.03 0.04 0.05 0.03 0.02 0.02 0.01 0.00 0.00 0.01 0.01 0.01 0.00 0.00 0.01 0.02 0.02 0.01 0.00 0.00 0.00 0.00
0.00 0.00 0.01 0.03 0.06 0.14 0.16 0.24 0.22 0.32 0.45 0.23 0.03 0.00 0.00 0.00 0.00 0.00 0.01 0.00 0.01 0.02 0.04 0.07 0.06 0.04 0.02 0.02 0.01 0.00 0.00 0.00 0.02 0.02 0.00 0.00 0.00 0.00 0.00 0.00 0.00 0.00 0.00 0.00
0.00 0.00 0.01 0.04 0.09 0.16 0.13 0.14 0.17 0.28 0.40 0.20 0.01 0.00 0.00 0.00 0.00 0.00 0.00 0.00 0.02 0.03 0.07 0.16 0.13 0.07 0.02 0.01 0.01 0.01 0.00 0.01 0.02 0.02 0.00 0.00 0.00 0.00 0.00 0.00 0.00 0.01 0.00 0.00
0.00 0.00 0.01 0.02 0.03 0.08 0.11 0.16 0.15 0.19 0.22 0.16 0.02 0.00 0.00 0.00 0.00 0.00 0.00 0.00 0.01 0.06 0.22 0.25 0.10 0.03 0.06 0.04 0.04 0.01 0.00 0.01 0.03 0.02 0.00 0.02 0.00 0.00 0.00 0.00 0.00 0.00 0.01 0.00
0.00 0.03 0.04 0.03 0.02 0.03 0.06 0.05 0.02 0.01 0.04 0.12 0.01 0.00 0.00 0.00 0.00 0.00 0.00 0.00 0.02 0.08 0.22 0.19 0.09 0.02 0.24 0.39 0.09 0.00 0.00 0.00 0.00 0.00 0.00 0.00 0.00 0.00 0.00 0.00 0.00 0.00 0.00 0.00
0.02 0.04 0.04 0.07 0.03 0.05 0.06 0.03 0.02 0.01 0.06 0.12 0.04 0.00 0.00 0.02 0.01 0.00 0.01 0.00 0.01 0.05 0.11 0.11 0.04 0.03 0.26 0.30 0.06 0.00 0.00 0.00 0.00 0.00 0.00 0.00 0.00 0.00 0.00 0.00 0.00 0.00 0.01 0.02
0.03 0.03 0.02 0.05 0.01 0.01 0.02 0.01 0.01 0.01 0.05 0.02 0.01 0.00 0.00 0.00 0.00 0.02 0.03 0.01 0.03 0.08 0.05 0.02 0.01 0.03 0.09 0.10 0.00 0.00 0.00 0.00 0.00 0.00 0.00 0.00 0.01 0.01 0.00 0.00 0.00 0.00 0.00 0.01
0.03 0.02 0.01 0.01 0.03 0.04 0.02 0.00 0.00 0.02 0.05 0.04 0.03 0.01 0.01 0.00 0.00 0.01 0.02 0.02 0.04 0.03 0.06 0.01 0.03 0.04 0.07 0.01 0.00 0.00 0.00 0.01 0.04 0.06 0.03 0.02 0.03 0.03 0.01 0.00 0.00 0.00 0.00 0.01
0.03 0.01 0.01 0.01 0.01 0.00 0.01 0.01 0.04 0.12 0.13 0.06 0.02 0.00 0.00 0.00 0.00 0.01 0.01 0.03 0.02 0.03 0.02 0.02 0.06 0.02 0.01 0.02 0.03 0.07 0.13 0.14 0.13 0.13 0.03 0.01 0.03 0.02 0.03 0.02 0.02 0.02 0.01 0.01
0.01 0.01 0.01 0.01 0.00 0.00 0.01 0.03 0.05 0.05 0.08 0.04 0.01 0.00 0.01 0.02 0.04 0.11 0.07 0.07 0.06 0.10 0.02 0.07 0.07 0.03 0.09 0.14 0.17 0.19 0.18 0.11 0.05 0.04 0.04 0.07 0.13 0.09 0.06 0.04 0.03 0.03 0.02 0.01
0.01 0.00 0.00 0.01 0.01 0.01 0.03 0.04 0.04 0.08 0.03 0.02 0.03 0.06 0.14 0.11 0.21 0.41 0.25 0.17 0.14 0.07 0.08 0.21 0.10 0.19 0.17 0.12 0.06 0.04 0.05 0.04 0.09 0.16 0.28 0.16 0.13 0.08 0.07 0.03 0.01 0.01 0.02 0.02
0.00 0.01 0.01 0.01 0.02 0.02 0.03 0.01 0.02 0.08 0.08 0.04 0.14 0.34 0.46 0.35 0.35 0.37 0.18 0.16 0.06 0.06 0.13 0.18 0.37 0.20 0.05 0.04 0.04 0.01 0.00 0.09 0.23 0.22 0.20 0.16 0.09 0.03 0.02 0.01 0.01 0.01 0.05 0.06
0.01 0.00 0.00 0.00 0.00 0.00 0.00 0.00 0.01 0.03 0.05 0.03 0.16 0.56 0.61 0.33 0.40 0.17 0.16 0.05 0.09 0.17 0.27 0.36 0.19 0.04 0.01 0.01 0.01 0.01 0.02 0.08 0.14 0.14 0.09 0.06 0.06 0.03 0.01 0.02 0.03 0.08 0.07 0.10
0.01 0.00 0.00 0.00 0.00 0.00 0.00 0.00 0.00 0.00 0.00 0.04 0.23 0.30 0.41 0.31 0.30 0.15 0.16 0.21 0.31 0.39 0.34 0.27 0.11 0.03 0.01 0.01 0.01 0.01 0.03 0.05 0.08 0.10 0.07 0.04 0.02 0.00 0.03 0.05 0.06 0.07 0.05 0.06
0.00 0.00 0.00 0.00 0.00 0.00 0.00 0.00 0.00 0.00 0.00 0.01 0.08 0.13 0.15 0.36 0.23 0.35 0.41 0.38 0.38 0.34 0.26 0.14 0.06 0.01 0.00 0.00 0.00 0.01 0.03 0.07 0.20 0.23 0.16 0.15 0.09 0.02 0.02 0.03 0.03 0.03 0.04 0.04
0.00 0.00 0.00 0.00 0.00 0.00 0.00 0.00 0.00 0.00 0.01 0.04 0.06 0.09 0.07 0.09 0.15 0.18 0.24 0.29 0.28 0.16 0.04 0.02 0.02 0.03 0.01 0.00 0.01 0.00 0.03 0.02 0.02 0.01 0.09 0.20 0.09 0.08 0.15 0.10 0.07 0.07 0.06 0.05